Regional Weather Roundup
Issued by NWS

Home | Current Version | Previous Version | Graphics & Text | Print | Product List | Glossary Off
Versions: 1 2 3 4 5 6 7 8 9 10 11 12 13 14 15 16 17 18 19 20 21 22 23 24 25 26 27 28 29 30 31 32 33 34 35 36 37 38 39 40 41 42 43 44 45 46 47 48 49 50

105
ASUS43 KOAX 240910
RWRNE

WEATHER ROUNDUP FOR NEBRASKA
NATIONAL WEATHER SERVICE OMAHA NE
400 AM CDT SAT JUN 24 2017

NOTES: SATELLITE DATA IS BEING USED TO AUGMENT CLOUD COVER ABOVE
       12000 FEET.
       "FAIR" INDICATES FEW OR NO CLOUDS BELOW 12,000 FEET WITH NO
       SIGNIFICANT WEATHER AND/OR OBSTRUCTIONS TO VISIBILITY.

  * THESE STATIONS DO NOT REPORT WEATHER SUCH AS RAIN...SNOW OR FOG.

NEZ001>004-019>022-054>056-241000-
NEBRASKA PANHANDLE

CITY           SKY/WX    TMP DP  RH WIND       PRES   REMARKS
SCOTTSBLUFF    CLOUDY    57  35  43 CALM      30.30F
ALLIANCE       CLOUDY    49  43  80 SW7       30.28F
CHADRON        CLEAR     43  37  79 S3        30.27F
GORDON         FAIR      43  36  76 W8        30.25F
KIMBALL        CLOUDY    53  40  62 CALM      30.32F
SIDNEY         CLOUDY    54  37  52 E6        30.31S
$$

NEZ057>060-069>072-079>082-241000-
SOUTHWEST NEBRASKA

CITY           SKY/WX    TMP DP  RH WIND       PRES   REMARKS
NORTH PLATTE   CLOUDY    48  42  80 CALM      30.26S
IMPERIAL       CLOUDY    53  45  74 N7        30.26F
LEXINGTON      CLEAR     47  44  87 W6        30.24S
MCCOOK         CLOUDY    50  46  86 N5        30.24S
OGALLALA       CLOUDY    55  46  72 CALM      30.28S
$$

NEZ005>010-023>029-035>040-094-241000-
NORTH CENTRAL NEBRASKA

CITY           SKY/WX    TMP DP  RH WIND       PRES   REMARKS
VALENTINE      CLEAR     44  31  60 W7        30.22S
AINSWORTH      CLEAR     44  37  77 W7        30.22S
BROKEN BOW     CLEAR     44  38  79 CALM      30.23R
O`NEILL        CLEAR     46  40  77 W5        30.19S
ORD            CLEAR     43  37  79 W3        30.20S
THEDFORD       CLOUDY    45  36  70 W3        30.25F
$$

NEZ041-046>049-061>064-073>077-083>087-241000-
SOUTH CENTRAL NEBRASKA

CITY           SKY/WX    TMP DP  RH WIND       PRES   REMARKS
GRAND ISLAND   CLEAR     48  44  86 W6        30.20S
AURORA         CLEAR     47  43  85 NW6       30.19S
HASTINGS       CLEAR     53  44  71 W5        30.22S
HEBRON         CLEAR     53  48  83 CALM      30.19S
HOLDREGE       PTCLDY    49  43  79 NW6       30.23S
KEARNEY *      CLEAR     52  39  62 NW8       30.23R
YORK           CLEAR     50  43  76 NW7       30.19S
$$

NEZ011>018-030>034-042>045-241000-
NORTHEAST NEBRASKA

CITY           SKY/WX    TMP DP  RH WIND       PRES   REMARKS
NORFOLK        CLEAR     49  38  65 W3        30.17R
ALBION         CLEAR     44  38  78 CALM      30.19R
BLAIR          CLEAR     54  43  66 W5        30.14S
FREMONT        CLEAR     50  43  76 W3        30.16S
TEKAMAH        CLEAR     52  42  69 W8        30.14R
WAYNE          CLEAR     45  43  93 S3        30.15S
$$

NEZ050>053-065>068-078-088>093-241000-
SOUTHEAST NEBRASKA

CITY           SKY/WX    TMP DP  RH WIND       PRES   REMARKS
LINCOLN        CLEAR     52  48  86 CALM      30.17S
OMAHA EPPLEY   CLEAR     55  48  77 CALM      30.14R
BEATRICE       CLEAR     53  51  95 CALM      30.17R
FALLS CITY     CLEAR     55  51  86 NW7       30.13R
NEBRASKA CITY  CLEAR     57  48  71 NW7       30.15R
PLATTSMOUTH    CLEAR     53  47  79 W5        30.15R
$$

NEZ044-045-051>053-067-241000-
OMAHA AREA

CITY           SKY/WX    TMP DP  RH WIND       PRES   REMARKS
OMAHA EPPLEY   CLEAR     55  48  77 CALM      30.14R
BLAIR          CLEAR     54  43  66 W5        30.14S
FREMONT        CLEAR     50  43  76 W3        30.16S
MILLARD        CLEAR     55  47  73 CALM      30.15R
OFFUTT AFB     PTCLDY    52  45  75 NW9       30.14R
PLATTSMOUTH    CLEAR     53  47  79 W5        30.15R
WAHOO          FAIR      54  41  62 NW6       30.15S
$$




USA.gov is the U.S. government's official web portal to all federal, state and local government web resources and services.